Regional Weather Roundup
Issued by NWS

Home | Current Version | Previous Version | Graphics & Text | Print | Product List | Glossary On
Versions: 1 2 3 4 5 6 7 8 9 10 11 12 13 14 15 16 17 18 19 20 21 22 23 24 25 26 27 28 29 30 31 32 33 34 35 36 37 38 39 40 41 42 43 44 45 46 47 48 49 50
000
ASUS43 KBIS 241759
RWRND

NORTH DAKOTA REGIONAL WEATHER ROUNDUP
NATIONAL WEATHER SERVICE BISMARCK ND
100 PM CDT THU APR 24 2014

NOTE: "FAIR" INDICATES FEW OR NO CLOUDS BELOW 12,000 FEET WITH NO
SIGNIFICANT WEATHER AND/OR OBSTRUCTIONS TO VISIBILITY.


NDZ001>003-009>011-017-241900-
NORTHWEST NORTH DAKOTA

CITY           SKY/WX    TMP DP  RH WIND       PRES   REMARKS
WILLISTON      MOSUNNY   56  36  47 W10G24    29.74S
6HR MIN TEMP:  35; 6HR MAX TEMP:  56;

MINOT          FAIR      56  35  45 NW14      29.67F
$$

NDZ018>021-031>035-040>046-241900-
SOUTHWEST NORTH DAKOTA

CITY           SKY/WX    TMP DP  RH WIND       PRES   REMARKS
BISMARCK       MOSUNNY   59  22  24 W14G26    29.72F
6HR MIN TEMP:  36; 6HR MAX TEMP:  62;

DICKINSON      MOSUNNY   55  19  24 NW21G36   29.73F
GARRISON         N/A     57  27  31 W24G31    29.69F
6HR MIN TEMP:  33; 6HR MAX TEMP:  58;

HETTINGER ARPT SUNNY     57  21  24 W26G40    29.77F
$$

NDZ004>008-012>016-024-026-027-054-241900-
NORTHEAST NORTH DAKOTA

CITY           SKY/WX    TMP DP  RH WIND       PRES   REMARKS
GRAND FORKS    CLOUDY    42  40  92 SE10      29.72S
DEVILS LAKE    CLOUDY    45  37  76 SE5       29.70S
$$

NDZ022-023-025-028>030-036>039-047>053-241900-
SOUTHEAST NORTH DAKOTA

CITY           SKY/WX    TMP DP  RH WIND       PRES   REMARKS
FARGO          CLOUDY    43  41  93 S7        29.71F FOG
6HR MIN TEMP:  41; 6HR MAX TEMP:  43; 6HR PCP:  0.18;

$$




USA.gov is the U.S. government's official web portal to all federal, state and local government web resources and services.